Regional Weather Roundup
Issued by NWS

Home | Current Version | Previous Version | Graphics & Text | Print | Product List | Glossary On
Versions: 1 2 3 4 5 6 7 8 9 10 11 12 13 14 15 16 17 18 19 20 21 22 23 24 25 26 27 28 29 30 31 32 33 34 35 36 37 38 39 40 41 42 43 44 45 46 47 48 49 50
000
ASUS43 KFSD 150810
RWRSD

WEATHER ROUNDUP FOR SOUTH DAKOTA
NATIONAL WEATHER SERVICE SIOUX FALLS SD
200 AM CST FRI DEC 15 2017

NOTE: "FAIR" INDICATES FEW OR NO CLOUDS BELOW 12,000 FEET WITH NO
SIGNIFICANT WEATHER AND/OR OBSTRUCTIONS TO VISIBILITY.


SDZ001>005-009-010-012>017-150900-
NORTHWEST AND NORTH CENTRAL SOUTH DAKOTA

CITY           SKY/WX    TMP DP  RH WIND       PRES   REMARKS
BUFFALO          N/A     21  17  84 W5        29.88F WCI  15
FAITH            N/A     26  22  84 W12       29.96F WCI  16
MOBRIDGE       PTCLDY    30  23  75 W7        29.94F WCI  23
$$

SDZ012>016-024>037-041>051-057-063-072>074-150900-
SOUTHWEST AND SOUTH CENTRAL SOUTH DAKOTA

CITY           SKY/WX    TMP DP  RH WIND       PRES   REMARKS
RAPID CTY ARPT CLOUDY    16  10  77 CALM      30.01F
PIERRE         MOCLDY    30  24  78 W10       30.00F WCI  21
CUSTER         CLOUDY    22  14  71 SW6       29.99F WCI  14
ELLSWORTH AFB  CLOUDY    22  14  69 W3        29.99F
PHILIP         CLEAR     24  21  88 W6        30.03F WCI  17
PINE RIDGE     CLOUDY    21  18  88 CALM      30.08S
SPEARFISH      FAIR      32  18  55 W13       29.99F WCI  22
WINNER         FAIR      30  23  75 W13       30.04F WCI  20
$$

SDZ004>011-016>023-039-040-150900-
NORTHEAST SOUTH DAKOTA

CITY           SKY/WX    TMP DP  RH WIND       PRES   REMARKS
ABERDEEN       CLOUDY    32  27  81 W8        29.95F WCI  25
WATERTOWN      CLOUDY    29  27  92 W8        29.92F WCI  21
BROOKINGS      CLOUDY    29  26  89 W15       29.95F WCI  18
SISSETON         N/A     32  28  85 NW12      29.92F WCI  23
$$

SDZ017-020-022-023-036>040-048>070-150900-
SOUTHEAST SOUTH DAKOTA

CITY           SKY/WX    TMP DP  RH WIND       PRES   REMARKS
SIOUX FALLS    CLOUDY    30  26  85 W8        30.00F WCI  22
HURON          CLOUDY    34  26  72 W12       29.99F WCI  25
CHAMBERLAIN    PTCLDY    32  30  92 W9        30.03F WCI  24
MITCHELL       CLOUDY    34  27  75 W13       30.02F WCI  25
YANKTON        CLOUDY    34  24  67 W13       30.04F WCI  25
$$

ABBREVIATIONS USED IN REMARKS
   TC - TEMPERATURE IN CELSIUS
  WCI - WIND CHILL INDEX
   HX - HEAT INDEX
  VSB - VISIBILITY





USA.gov is the U.S. government's official web portal to all federal, state and local government web resources and services.